Montego Bay, Jamaica

10:27 PM EST on October 20, 2017 (GMT -0500)
Sangster International

Weather History for MKJS - March, 2013

Change the Weather History Date:

Wednesday, March 6, 2013

  Actual Average Record
Temperature  
Mean Temperature 80 °F -  
Max Temperature 85 °F 83 °F 88 °F (2015)
Min Temperature 74 °F 73 °F 71 °F (1997)
Cooling Degree Days 14    
Growing Degree Days 30 (Base 50)    
Moisture  
Dew Point 70 °F    
Average Humidity 75    
Maximum Humidity 83    
Minimum Humidity 63    
Precipitation  
Precipitation 0.12 in - - ()
Sea Level Pressure  
Sea Level Pressure 30.01 in    
Wind  
Wind Speed 6 mph ()    
Max Wind Speed 17 mph    
Max Gust Speed -    
Visibility 8.0 miles    
Events Rain    
Averages and records for this station are not official NWS values.
T = Trace of Precipitation, MM = Missing Value Source: Averaged Metar Reports

Daily Weather History Graph

Daily Weather History Graph

Search for Another Location

Airport or City:

Trip Planner

Search our weather history database for the weather conditions in past years. The results will help you decide how hot, cold, wet, or windy it might be!

Date:

Astronomy

Mar. 06, 2013 Rise Set
Actual Time 6:26 AM EST 6:19 PM EST
Civil Twilight 6:04 AM EST 6:41 PM EST
Nautical Twilight 5:39 AM EST 7:06 PM EST
Astronomical Twilight 5:14 AM EST 7:31 PM EST
Moon 2:00 AM EST (3/6) 1:31 PM EST (3/6)
Length of Visible Light 12h 36m
Length of Day
11h 52m
Waning Crescent, 30% of the Moon is Illuminated
Mar 6
Waning Crescent
Mar 11
New
Mar 19
First Quarter
Mar 27
Full
Apr 2
Last Quarter

Hourly Weather History & Observations

Time (EST) Temp. Heat Index Dew Point Humidity Pressure Visibility Wind Dir Wind Speed Gust Speed Precip Events Conditions
12:00 AM 77.0 °F - 68.0 °F 74% 30.01 in 6.2 mi ESE 5.8 mph - N/A   Mostly Cloudy
1:00 AM 76 °F - 69 °F 73% 30.00 in 12 mi SSE 2.3 mph - -  
1:00 AM 75.2 °F - 69.8 °F 83% 29.98 in 6.2 mi West 2.3 mph - N/A   Mostly Cloudy
3:00 AM 75.2 °F - 68.0 °F 78% 29.95 in 6.2 mi Calm Calm - N/A   Mostly Cloudy
4:00 AM 75 °F - 68 °F 74% 29.97 in 12 mi SSE 2.3 mph - -   Mostly Cloudy
4:00 AM 75.2 °F - 68.0 °F 78% 29.95 in 6.2 mi SSE 2.3 mph - N/A   Mostly Cloudy
5:00 AM 75.2 °F - 68.0 °F 78% 29.95 in 6.2 mi SE 3.5 mph - N/A   Mostly Cloudy
6:00 AM 75.2 °F - 68.0 °F 78% 29.98 in 6.2 mi ENE 2.3 mph - N/A   Mostly Cloudy
7:00 AM 76 °F - 68 °F 71% 30.01 in 16 mi SSE 5.8 mph - -   Partly Cloudy
7:00 AM 77.0 °F - 68.0 °F 74% 30.01 in 6.2 mi SSE 5.8 mph - N/A   Scattered Clouds
8:00 AM 77.0 °F - 69.8 °F 78% 30.01 in 6.2 mi East 5.8 mph - N/A   Scattered Clouds
9:00 AM 78.8 °F - 71.6 °F 78% 30.04 in 6.2 mi ENE 9.2 mph - N/A   Mostly Cloudy
10:00 AM 80 °F - 71 °F 67% 30.06 in 17 mi East 13.8 mph - -   Mostly Cloudy
10:00 AM 78.8 °F - 71.6 °F 78% 30.04 in 6.2 mi East 13.8 mph - N/A   Scattered Clouds
11:00 AM 82.4 °F 87.2 °F 71.6 °F 70% 30.04 in 6.2 mi ENE 11.5 mph - N/A   Scattered Clouds
12:00 PM 80.6 °F 84.6 °F 71.6 °F 74% 30.04 in 6.2 mi East 11.5 mph - N/A   Scattered Clouds
1:00 PM 81 °F - 71 °F 65% 30.01 in 17 mi ENE 17.3 mph - -   Haze
1:00 PM 80.6 °F 84.6 °F 71.6 °F 74% 30.01 in 6.2 mi ENE 17.3 mph - N/A   Scattered Clouds
2:00 PM 80.6 °F 84.6 °F 71.6 °F 74% 29.98 in 6.2 mi ENE 15.0 mph - N/A   Partly Cloudy
3:00 PM 80.6 °F 84.6 °F 71.6 °F 74% 29.98 in 6.2 mi NE 15.0 mph - N/A   Scattered Clouds
4:00 PM 82 °F - 71 °F 63% 29.99 in 16 mi ENE 16.1 mph - -   Haze
4:00 PM 82.4 °F 87.2 °F 71.6 °F 70% 29.98 in 6.2 mi ENE 16.1 mph - N/A   Scattered Clouds
5:00 PM 80.6 °F 84.6 °F 71.6 °F 74% 29.98 in 6.2 mi ENE 13.8 mph - N/A   Mostly Cloudy
6:00 PM 80.6 °F 84.6 °F 71.6 °F 74% 30.01 in 6.2 mi ENE 11.5 mph - N/A   Mostly Cloudy
7:00 PM 78 °F - 71 °F 72% 30.02 in 12 mi East 8.1 mph - -   Mostly Cloudy
7:00 PM 77.0 °F - 71.6 °F 83% 30.01 in 6.2 mi East 8.1 mph - N/A   Mostly Cloudy
8:00 PM 77.0 °F - 71.6 °F 83% 30.04 in 6.2 mi ESE 4.6 mph - N/A   Mostly Cloudy
9:00 PM 77.0 °F - 69.8 °F 78% 30.04 in 6.2 mi East 3.5 mph - N/A   Mostly Cloudy
10:00 PM 77 °F - 71 °F 76% 30.07 in 4 mi East 4.6 mph - - Rain Rain
10:00 PM 77.0 °F - 69.8 °F 78% 30.06 in 4.3 mi East 4.6 mph - N/A Rain Rain
11:00 PM 77.0 °F - 71.6 °F 83% 30.04 in 6.2 mi East 3.5 mph - N/A Rain Light Rain